Precipitable_Water
0.74 0.60 0.65 0.71 0.68 0.70 0.64 0.61 0.59 0.64 0.78 0.76 0.75 0.80 0.90 1.03 1.05 1.02 1.05 1.07 1.11 1.19 1.30 1.37 1.40 1.47 1.56 1.62 1.65 1.68 1.69 1.77 1.86 1.86 1.86 1.89 1.88 2.05 2.06 2.10 2.12 2.08 2.04 2.09
0.61 0.57 0.74 0.78 0.70 0.66 0.65 0.61 0.60 0.63 0.70 0.72 0.70 0.67 0.81 0.92 0.95 1.02 1.04 1.05 1.07 1.15 1.29 1.29 1.32 1.43 1.50 1.58 1.59 1.60 1.64 1.73 1.79 1.82 1.83 1.89 1.98 2.11 2.10 2.10 2.11 2.13 2.09 2.08
0.60 0.67 0.70 0.71 0.65 0.63 0.63 0.63 0.62 0.60 0.66 0.70 0.65 0.57 0.66 0.82 0.96 1.02 1.08 1.12 1.12 1.13 1.22 1.28 1.31 1.33 1.44 1.47 1.55 1.59 1.65 1.68 1.74 1.80 1.80 1.87 1.93 2.03 2.04 2.04 2.05 2.06 2.08 2.02
0.64 0.75 0.70 0.76 0.61 0.63 0.58 0.65 0.63 0.60 0.56 0.62 0.63 0.53 0.57 0.65 0.78 0.91 1.00 1.09 1.16 1.16 1.19 1.28 1.34 1.43 1.49 1.58 1.69 1.72 1.76 1.69 1.71 1.77 1.75 1.76 1.73 1.75 1.88 1.91 1.98 2.04 1.98 1.92
0.58 0.62 0.68 0.65 0.63 0.61 0.52 0.62 0.63 0.61 0.58 0.55 0.70 0.48 0.59 0.54 0.60 0.76 0.93 1.04 1.17 1.20 1.18 1.24 1.35 1.45 1.53 1.58 1.66 1.77 1.83 1.80 1.77 1.76 1.81 1.80 1.78 1.80 1.87 1.91 1.89 1.94 1.86 1.89
0.64 0.68 0.74 0.69 0.76 0.66 0.59 0.54 0.59 0.61 0.56 0.43 0.50 0.44 0.47 0.49 0.55 0.68 0.81 0.96 1.12 1.25 1.22 1.29 1.39 1.49 1.53 1.60 1.63 1.68 1.70 1.77 1.82 1.81 1.81 1.79 1.75 1.76 1.78 1.81 1.84 1.91 1.93 1.99
0.51 0.59 0.66 0.65 0.59 0.61 0.63 0.52 0.44 0.41 0.40 0.41 0.49 0.45 0.50 0.56 0.67 0.75 0.81 0.88 1.04 1.21 1.30 1.33 1.40 1.45 1.52 1.57 1.62 1.69 1.71 1.67 1.78 1.80 1.78 1.71 1.74 1.75 1.77 1.85 1.87 1.83 1.89 1.87
0.39 0.39 0.55 0.58 0.57 0.58 0.62 0.55 0.47 0.42 0.41 0.44 0.52 0.42 0.51 0.64 0.75 0.83 0.88 0.91 1.00 1.08 1.22 1.29 1.36 1.43 1.48 1.58 1.60 1.67 1.63 1.73 1.74 1.80 1.82 1.86 1.86 1.84 1.84 1.86 1.89 1.90 1.89 1.89
0.35 0.40 0.56 0.61 0.58 0.60 0.58 0.53 0.61 0.53 0.44 0.39 0.45 0.48 0.47 0.65 0.72 0.78 0.81 0.87 0.92 1.03 1.16 1.27 1.38 1.44 1.49 1.51 1.57 1.60 1.68 1.67 1.75 1.82 1.88 1.92 1.94 1.88 1.89 1.94 1.96 1.97 2.00 2.01
0.46 0.39 0.49 0.50 0.51 0.61 0.49 0.53 0.49 0.51 0.41 0.39 0.44 0.44 0.40 0.63 0.65 0.72 0.75 0.78 0.85 0.99 1.09 1.20 1.32 1.42 1.48 1.51 1.54 1.63 1.78 1.71 1.83 1.85 1.95 1.97 2.00 2.11 2.05 1.99 1.97 1.97 2.03 1.99
0.42 0.39 0.39 0.44 0.46 0.46 0.42 0.39 0.44 0.44 0.42 0.33 0.32 0.38 0.58 0.57 0.66 0.68 0.74 0.80 0.85 0.93 1.03 1.14 1.24 1.35 1.42 1.51 1.57 1.60 1.62 1.65 1.72 1.76 1.80 1.85 1.90 1.88 1.89 2.01 2.08 2.06 2.05 2.01
0.40 0.35 0.36 0.35 0.62 0.61 0.52 0.44 0.41 0.34 0.32 0.36 0.34 0.36 0.61 0.62 0.68 0.79 0.84 0.90 0.97 1.05 1.12 1.17 1.23 1.29 1.29 1.37 1.45 1.55 1.64 1.67 1.71 1.80 1.79 1.80 1.85 1.92 1.90 1.96 2.04 2.13 2.04 1.99
0.47 0.35 0.32 0.35 0.40 0.48 0.47 0.45 0.43 0.41 0.41 0.38 0.38 0.44 0.85 0.79 0.80 0.90 0.90 0.94 1.00 1.09 1.17 1.21 1.23 1.27 1.33 1.34 1.38 1.43 1.48 1.46 1.49 1.54 1.49 1.50 1.66 1.70 1.73 1.76 1.88 1.95 1.92 1.82
0.50 0.40 0.34 0.33 0.38 0.44 0.43 0.46 0.45 0.43 0.41 0.49 0.49 0.47 0.69 0.76 0.81 0.91 0.94 0.99 1.04 1.09 1.13 1.17 1.18 1.24 1.29 1.36 1.35 1.40 1.48 1.53 1.48 1.45 1.41 1.43 1.46 1.57 1.64 1.80 1.92 1.91 1.84 1.80
0.34 0.37 0.39 0.38 0.41 0.38 0.38 0.44 0.46 0.44 0.46 0.43 0.43 0.44 0.55 0.77 0.84 0.90 0.99 0.99 0.99 1.01 1.03 1.07 1.08 1.15 1.20 1.24 1.28 1.34 1.39 1.39 1.41 1.35 1.43 1.52 1.59 1.56 1.70 1.75 1.70 1.75 1.84 1.88
0.28 0.31 0.42 0.35 0.41 0.38 0.37 0.43 0.48 0.48 0.47 0.48 0.42 0.37 0.58 0.75 0.89 0.86 0.89 0.89 0.90 0.98 1.02 1.07 1.11 1.13 1.18 1.16 1.18 1.20 1.21 1.26 1.32 1.30 1.34 1.41 1.45 1.47 1.50 1.53 1.51 1.53 1.59 1.64
0.25 0.34 0.38 0.31 0.41 0.39 0.35 0.41 0.47 0.50 0.54 0.50 0.41 0.60 0.65 0.73 0.77 0.76 0.81 0.81 0.85 0.95 0.98 1.04 1.10 1.13 1.16 1.20 1.23 1.19 1.23 1.31 1.28 1.26 1.30 1.33 1.31 1.31 1.30 1.32 1.32 1.30 1.33 1.42
0.31 0.34 0.38 0.32 0.41 0.28 0.40 0.56 0.52 0.52 0.55 0.57 0.60 0.68 0.74 0.79 0.82 0.87 0.94 0.89 0.89 0.95 1.02 1.11 1.15 1.18 1.23 1.26 1.28 1.32 1.35 1.31 1.30 1.33 1.34 1.25 1.21 1.18 1.17 1.17 1.15 1.11 1.11 1.11
0.42 0.39 0.37 0.38 0.34 0.42 0.47 0.50 0.51 0.51 0.53 0.64 0.61 0.75 0.77 0.86 0.89 0.88 1.03 1.06 1.04 1.08 1.17 1.19 1.25 1.27 1.28 1.32 1.38 1.39 1.40 1.32 1.22 1.16 1.13 1.10 1.12 1.08 1.09 0.99 0.98 0.98 0.94 0.88
0.49 0.56 0.50 0.43 0.37 0.36 0.51 0.61 0.66 0.63 0.46 0.60 0.60 0.72 0.75 0.80 0.63 0.81 1.01 1.14 1.13 1.17 1.21 1.22 1.28 1.31 1.29 1.32 1.36 1.32 1.30 1.28 1.19 1.09 1.04 1.08 1.08 1.03 0.98 0.94 0.85 0.77 0.66 0.54
0.46 0.51 0.47 0.51 0.42 0.50 0.64 0.67 0.65 0.42 0.51 0.60 0.61 0.65 0.73 0.73 0.86 1.02 1.06 1.12 1.20 1.21 1.22 1.26 1.28 1.25 1.26 1.29 1.23 1.10 1.06 1.03 1.07 1.05 1.05 1.04 0.98 0.86 0.76 0.63 0.56 0.50 0.46 0.43
0.56 0.51 0.46 0.53 0.47 0.47 0.70 0.65 0.52 0.63 0.66 0.69 0.66 0.65 0.67 0.81 0.87 0.94 1.04 1.10 1.16 1.17 1.19 1.21 1.16 1.10 1.11 1.10 1.08 1.02 0.98 1.01 0.98 0.90 0.81 0.71 0.64 0.58 0.56 0.51 0.47 0.45 0.44 0.40
0.52 0.61 0.62 0.58 0.60 0.73 0.70 0.74 0.75 0.74 0.73 0.77 0.78 0.80 0.77 0.75 0.86 0.97 1.02 1.09 1.13 1.16 1.14 1.12 1.06 1.03 1.03 1.02 0.99 0.90 0.85 0.75 0.67 0.64 0.61 0.59 0.56 0.53 0.50 0.46 0.44 0.41 0.41 0.39
0.70 0.75 0.65 0.61 0.67 0.68 0.75 0.78 0.81 0.83 0.81 0.84 0.88 0.84 0.83 0.78 0.89 0.97 1.04 1.07 1.05 1.06 1.04 1.03 0.98 0.93 0.90 0.87 0.79 0.71 0.68 0.65 0.61 0.59 0.58 0.58 0.55 0.52 0.53 0.51 0.48 0.44 0.42 0.40
0.75 0.79 0.72 0.67 0.70 0.71 0.73 0.78 0.82 0.83 0.86 0.91 0.92 0.92 0.92 0.91 0.95 1.00 0.97 0.96 0.98 0.98 0.96 0.95 0.88 0.82 0.74 0.71 0.64 0.60 0.58 0.57 0.53 0.54 0.53 0.53 0.52 0.53 0.53 0.53 0.49 0.45 0.46 0.45
0.80 0.76 0.66 0.64 0.72 0.72 0.74 0.76 0.80 0.81 0.86 0.92 0.86 0.89 0.95 0.96 0.97 0.99 0.97 0.97 0.96 0.93 0.88 0.86 0.83 0.71 0.65 0.62 0.60 0.60 0.61 0.60 0.57 0.55 0.56 0.54 0.51 0.52 0.52 0.52 0.49 0.51 0.47 0.44
Wind_Speed
13 11 11 6 3 3 4 4 4 3 1 4 4 4 3 5 5 5 5 6 6 5 6 6 7 7 7 7 8 8 7 7 8 8 8 8 8 8 8 8 9 9 8 8
13 15 7 12 6 5 6 5 2 1 0 4 5 4 4 6 7 7 6 6 6 6 5 6 6 6 6 6 7 8 8 8 8 8 8 9 8 8 8 8 8 8 8 8
18 12 11 9 9 7 8 7 3 3 3 5 5 7 3 5 7 8 9 8 7 7 7 6 5 5 6 6 6 8 9 9 9 9 8 8 8 7 7 7 7 7 8 8
19 12 13 14 12 9 9 7 4 4 6 2 4 2 2 2 6 8 10 11 10 9 8 7 6 6 6 6 6 7 8 8 9 9 9 9 8 7 7 6 7 6 6 7
20 17 17 15 12 7 4 5 7 7 7 7 5 5 1 3 3 4 9 12 13 12 11 10 9 8 7 7 6 7 8 8 8 9 10 10 10 9 8 9 8 7 7 7
21 17 17 17 14 11 7 8 9 8 8 9 2 5 0 2 3 4 4 8 13 12 12 11 11 10 10 9 7 8 9 9 10 9 10 11 12 11 10 10 10 9 9 8
23 19 20 17 15 12 13 11 11 10 8 6 2 5 4 2 1 3 4 4 6 12 11 12 11 11 11 11 10 10 10 11 11 11 12 12 12 13 13 13 12 11 10 9
20 22 23 18 20 13 14 15 8 7 8 4 5 5 1 1 2 2 3 2 2 6 9 11 11 11 11 11 12 12 11 11 12 13 14 14 14 15 16 16 16 15 14 12
19 21 20 21 17 19 11 15 14 14 11 11 8 4 10 2 2 2 2 2 2 3 6 7 10 10 11 12 13 14 15 16 16 18 17 19 18 18 18 19 20 20 18 16
13 16 17 18 17 15 13 8 9 11 7 14 6 8 9 4 4 4 4 4 4 3 4 6 8 10 12 13 15 15 16 17 17 18 19 20 22 22 21 21 21 21 21 20
10 16 14 15 19 18 14 14 13 13 12 13 12 7 3 5 6 6 5 4 4 4 5 6 8 9 12 12 13 14 15 16 17 18 20 22 24 24 25 23 22 22 23 23
17 13 13 19 11 12 13 12 13 11 13 11 11 12 7 6 6 5 4 4 3 4 5 7 9 9 10 10 10 12 13 13 14 15 17 21 24 25 24 27 26 25 23 23
19 13 14 13 13 11 12 14 12 11 9 12 11 8 6 6 7 7 6 5 5 6 8 9 8 7 7 7 7 7 7 7 9 10 12 13 13 16 19 22 25 27 30 32
20 19 16 15 9 7 14 12 12 12 11 11 10 10 6 7 9 8 8 7 6 7 8 7 6 5 4 4 4 3 4 6 7 8 9 10 9 9 9 12 15 18 21 24
22 23 18 16 11 10 9 11 12 13 13 10 11 12 8 9 9 9 8 7 7 6 5 5 5 4 5 6 6 6 8 10 9 9 10 10 8 7 7 9 8 10 11 11
24 21 21 18 14 14 12 11 12 12 11 13 15 16 8 9 9 9 8 7 6 5 5 5 4 4 5 7 7 9 11 10 10 10 10 9 9 9 9 9 9 9 8 10
22 19 18 18 15 14 14 15 14 13 12 12 12 4 6 9 10 9 8 7 6 6 5 5 5 5 6 6 6 8 8 9 10 11 11 11 12 12 13 13 13 14 16 17
21 23 17 16 13 17 12 8 11 13 12 12 10 7 8 10 9 8 8 7 6 7 7 7 7 7 8 8 8 9 9 10 10 12 13 15 16 16 17 17 18 19 20 22
21 20 17 16 16 10 11 12 12 12 11 10 10 8 8 10 9 8 9 9 8 7 8 9 9 10 10 11 12 12 13 14 14 15 17 18 18 18 20 21 22 23 24 25
19 20 18 17 18 17 14 11 10 10 12 8 10 10 11 13 13 11 11 9 9 9 9 10 10 12 13 14 15 16 16 17 17 19 19 20 20 21 23 24 25 26 26 27
20 20 20 16 16 11 9 10 10 12 6 6 7 8 10 13 10 9 10 10 10 10 10 11 12 13 14 15 16 17 18 18 19 20 21 22 23 24 24 25 25 25 26 27
16 18 17 14 15 16 12 11 13 8 7 7 7 7 9 9 9 10 10 11 11 11 12 12 13 14 15 16 17 18 19 21 22 22 22 23 23 23 23 24 25 26 26 26
16 14 12 14 11 11 14 10 11 11 10 10 9 9 8 9 9 10 11 11 11 12 13 14 15 16 17 18 20 20 21 22 22 22 22 22 23 24 24 25 26 26 27 28
17 18 15 14 14 15 17 14 13 11 9 9 9 9 9 8 9 10 11 11 12 13 14 16 17 18 19 20 21 21 21 21 21 21 22 23 24 25 25 26 26 27 28 29
16 14 15 13 12 11 13 13 11 11 10 10 10 10 9 9 9 10 10 11 13 14 15 17 18 20 20 20 20 20 20 20 21 22 23 24 24 25 26 26 27 28 29 30
17 15 14 11 11 10 10 13 14 13 12 11 10 10 11 10 10 10 11 12 13 14 16 18 20 20 19 19 19 19 20 20 21 22 23 23 24 25 26 27 28 29 30 32
Wind_Direction
205 218 207 221 218 220 224 245 275 296 212 231 257 281 210 188 190 170 172 180 183 191 189 200 209 214 218 227 232 234 233 235 235 239 241 248 252 254 257 255 249 251 252 251
204 220 192 213 235 229 227 241 245 159 145 235 290 288 235 202 217 209 197 196 196 195 193 197 202 208 223 233 237 237 237 240 239 244 246 249 260 262 260 255 246 249 251 254
216 217 194 208 219 226 230 246 279 329 313 244 292 265 228 225 229 229 224 217 210 206 207 205 210 223 227 236 239 242 241 241 242 245 250 251 255 256 251 252 249 250 255 261
220 208 207 219 223 235 267 215 225 271 300 285 251 325 129 232 239 240 235 229 225 224 224 223 222 230 236 249 251 247 242 242 243 245 249 250 247 249 252 251 251 251 254 264
213 214 215 218 218 229 263 247 256 264 283 266 204 273 232 245 277 259 245 237 232 234 232 232 235 240 248 254 261 251 242 245 246 244 247 250 251 256 256 250 250 254 258 266
225 218 218 226 223 237 244 248 246 244 261 256 309 289 138 2 331 308 313 246 234 231 237 236 241 247 252 257 265 253 248 250 245 246 248 252 253 254 253 250 252 256 262 270
218 219 217 220 225 226 240 243 240 237 230 247 280 276 308 17 352 332 318 288 250 230 231 239 241 248 256 254 258 258 259 251 248 248 252 254 254 254 254 252 252 255 259 267
215 217 218 218 228 223 223 241 255 246 258 231 252 273 270 259 289 313 324 324 272 228 233 242 246 252 256 257 256 260 257 262 255 254 257 258 259 259 256 252 252 255 259 263
214 222 215 220 221 221 231 231 255 266 265 264 250 248 274 212 237 276 297 292 283 258 244 251 253 259 263 264 258 265 262 264 262 260 263 261 261 261 260 257 255 254 255 258
215 214 211 208 213 214 234 242 223 229 215 252 232 267 265 227 243 256 269 275 272 266 268 268 263 266 270 269 263 266 269 268 268 265 267 267 263 262 264 261 257 252 254 255
211 214 198 201 210 213 218 230 243 257 255 276 273 279 247 256 245 254 260 258 245 259 279 284 280 278 275 269 270 269 270 272 275 270 271 271 267 265 260 258 259 256 254 257
207 208 196 205 199 225 239 241 224 238 244 255 270 275 273 255 242 230 221 229 240 273 285 296 293 289 282 276 275 277 278 276 278 278 282 283 274 265 261 255 259 257 261 260
203 212 202 203 203 213 223 215 234 253 266 265 271 282 266 251 233 230 226 235 255 274 292 301 295 288 283 282 285 284 282 286 291 289 302 305 301 271 263 261 256 257 265 261
206 217 217 203 205 220 209 222 231 238 254 276 259 275 252 242 230 231 231 244 262 281 296 296 289 282 278 278 287 284 298 307 306 305 318 321 318 319 282 277 267 263 267 265
214 217 216 227 223 232 249 229 224 241 262 270 290 288 281 243 228 221 227 244 261 272 285 294 282 277 278 275 280 284 292 301 296 301 313 319 312 316 312 304 292 285 282 271
208 212 216 228 227 235 245 234 236 240 258 272 278 277 268 237 219 219 229 245 254 256 277 284 273 280 290 278 277 290 296 290 291 294 304 308 308 301 304 303 300 296 291 274
200 203 205 220 219 229 240 236 235 248 260 272 281 275 229 208 212 218 232 242 247 254 270 267 270 279 296 295 292 298 301 293 291 293 295 297 298 299 299 296 294 292 286 281
203 207 210 227 217 231 243 233 242 252 266 268 266 248 224 210 215 228 242 246 251 259 267 272 275 278 284 288 293 294 297 295 294 294 294 299 296 293 297 294 292 291 288 285
212 214 217 222 225 228 231 234 239 246 264 252 252 239 227 215 221 243 251 252 254 260 271 280 281 283 284 286 287 287 289 292 292 294 295 296 296 294 294 294 292 291 290 288
212 211 218 218 234 233 251 221 243 251 257 256 253 239 228 220 241 249 244 250 257 261 271 280 282 282 283 285 286 286 286 287 289 294 294 293 294 294 294 294 293 293 292 290
207 213 221 220 231 232 228 232 229 244 241 258 253 242 229 233 261 237 243 250 257 265 271 279 283 286 287 287 286 287 288 289 289 290 291 291 292 292 293 293 293 294 293 292
215 217 218 229 235 240 226 223 236 234 244 253 254 245 239 244 243 243 247 252 260 266 271 279 284 289 290 289 289 289 289 290 290 290 291 291 292 292 293 294 294 294 293 293
221 221 233 233 238 231 217 247 240 247 248 260 245 253 252 245 245 247 251 255 261 267 274 279 283 288 291 292 291 290 290 289 289 289 290 291 292 293 294 295 295 295 295 295
227 224 233 236 233 238 234 239 239 243 243 249 255 254 249 254 250 250 252 257 265 271 277 282 286 290 292 293 293 292 291 291 290 291 291 292 293 295 294 296 295 295 296 296
227 218 228 237 234 228 222 226 228 239 249 252 251 252 256 255 254 253 258 264 271 277 282 286 289 293 293 293 293 293 292 292 292 292 293 294 294 295 296 296 296 296 296 296
216 222 227 223 212 228 224 232 241 246 248 248 251 251 257 258 258 260 265 272 278 283 288 291 293 293 292 292 292 293 294 294 295 295 295 296 297 297 298 298 298 297 296 297